Regional Weather Roundup
Issued by NWS

Home | Current Version | Previous Version | Text Only | Print | Product List | Glossary Off
Versions: 1 2 3 4 5 6 7 8 9 10 11 12 13 14 15 16 17 18 19 20 21 22 23 24 25 26 27 28 29 30 31 32 33 34 35 36 37 38 39 40 41 42 43 44 45 46 47 48 49 50

000
ASUS43 KLOT 051003
RWRIL

ILLINOIS REGIONAL WEATHER ROUNDUP
NATIONAL WEATHER SERVICE CHICAGO/ROMEOVILLE IL
500 AM CDT THU MAY 05 2016

NOTE: "FAIR" INDICATES FEW OR NO CLOUDS BELOW 12,000 FEET WITH NO
SIGNIFICANT WEATHER AND/OR OBSTRUCTIONS TO VISIBILITY.

* THESE STATIONS ARE NOT UNDER NWS QUALITY CONTROL. THEY ALSO MAY NOT
  REPORT WEATHER SUCH AS PRECIPITATION OR FOG.

ILZ001-002-007-009-015-016-024-051100-
NORTHWEST ILLINOIS

CITY           SKY/WX    TMP DP  RH WIND       PRES   REMARKS
MOLINE         CLEAR     41  35  79 CALM      29.96R
STERLING*      CLEAR     41  36  81 N6        29.96R
$$

ILZ003-004-008-010-011-017-018-051100-
NORTH CENTRAL ILLINOIS

CITY           SKY/WX    TMP DP  RH WIND       PRES   REMARKS
ROCKFORD       PTCLDY    40  33  76 N14       29.97R
FREEPORT*      CLEAR     37  33  86 N5        29.99R WCI  33
ROCHELLE*      CLEAR     38  34  86 N12       29.95R WCI  30
DE KALB*       PTCLDY    38  35  86 N10       29.94R WCI  32
$$

ILZ005-006-012>014-019>023-051100-
NORTHEAST ILLINOIS

CITY           SKY/WX    TMP DP  RH WIND       PRES   REMARKS
CHICAGO-OHARE  MOCLDY    42  33  70 N15       29.89R
CHICAGO-MIDWAY MOCLDY    43  33  68 N13G23    29.89R
AURORA         MOCLDY    40  35  83 N13       29.92R
LANSING*       CLOUDY    41  36  81 N15G22    29.89R
WAUKEGAN       PTCLDY    40  33  76 N7        29.91R
DUPAGE AIRPORT CLOUDY    41  33  73 N12       29.90R
WHEELING       PTCLDY    42  33  70 N9        29.92R
NORTHERLY ISL    N/A     41  35  79 MISG        N/A
NORTHERLY ISL    N/A     41  35  79 MISG        N/A
$$

LMZ740>746-051100-
SOUTHERN LAKE MICHIGAN

STATION/POSITION SKY/WX   TEMP    WIND        PRES    VSBY  WAVE
                          AIR SEA DIR/SP/G                  HT/PER
                          (F)     (DEG/KT/KT) (MB)    (MI)  (FT/S)
SOUTHERN BUOY              40 40   20/ 19/ 23 1011.5          7/ 8
WILMETTE HARBOR            41 44   30/ 19/ 27   N/A           9/ 8
HARRISON CRIB              42     350/ 24/ 30   N/A
BURNHAM HARBOR             41     360/ 15/ 23   N/A
CALUMET HARBOR             42     340/ 19/ 26 1011.3R
BURNS HARBOR               43      20/ 20     1011.5R
MICHIGAN CITY              42     360/ 24/ 26   N/A
ST. JOSEPH                 44 47                N/A           8/ 7
$$

ILZ025>027-034>036-040-047-049-050-058-095>099-051100-
WEST-CENTRAL ILLINOIS

CITY           SKY/WX    TMP DP  RH WIND       PRES   REMARKS
QUINCY         CLEAR     41  35  79 N8        29.94R
MACOMB*        CLEAR     39  36  89 N6        29.98R WCI  35
PITTSFIELD*    CLEAR     45  37  72 N6        29.95R
$$

ILZ028>032-037-038-041>044-048-051>054-059>061-051100-
CENTRAL ILLINOIS

CITY           SKY/WX    TMP DP  RH WIND       PRES   REMARKS
BLOOMINGTON    CLEAR     39  37  92 N13       29.91R WCI  31
DECATUR        PTCLDY    42  35  76 N14G22    29.88R
PEORIA         CLEAR     42  35  76 N8        29.93S
SPRINGFIELD    CLEAR     43  37  79 N8        29.92R
TAYLORVILLE    NOT AVBL
$$

ILZ033-039-045-046-055>057-062-063-051100-
EAST-CENTRAL ILLINOIS

CITY           SKY/WX    TMP DP  RH WIND       PRES   REMARKS
CHAMPAIGN      CLOUDY    41  36  82 NW14      29.86R
MATTOON        MOCLDY    42  35  76 N15       29.85R
$$

ILZ079-100>102-051100-
SOUTHWEST ILLINOIS

CITY           SKY/WX    TMP DP  RH WIND       PRES   REMARKS
ALTON          CLEAR     46  37  69 N5        29.91R
BELLEVILLE     CLEAR     49  39  68 VRB5      29.88R
CAHOKIA*       CLEAR     50  38  63 N9        29.90R
SPARTA*        CLEAR     47  39  74 NW5       29.89R
$$

ILZ064>066-069>071-074>076-080>082-084>086-088>090-092>094-051100-
SOUTH-CENTRAL ILLINOIS

CITY           SKY/WX    TMP DP  RH WIND       PRES   REMARKS
CARBONDALE     CLEAR     47  38  71 NW8       29.86R
MT. VERNON     PTCLDY    46  37  71 N5        29.86R
SALEM*         CLEAR     46  41  81 N6        29.87R
$$

ILZ067-068-072-073-078-083-087-091-051100-
SOUTHEAST ILLINOIS

CITY           SKY/WX    TMP DP  RH WIND       PRES   REMARKS
LAWRENCEVILLE  PTCLDY    45  37  73 N14       29.82R
FLORA*         CLEAR     46  40  78 N13       29.85S
HARRISBURG*    PTCLDY    47  42  82 NW8       29.84R
ROBINSON*      CLOUDY    44  37  76 N13       29.83R
$$

ABBREVIATIONS USED IN REMARKS
   TC - TEMPERATURE IN CELSIUS
  WCI - WIND CHILL INDEX
   HX - HEAT INDEX
  VSB - VISIBILITY
$$





USA.gov is the U.S. government's official web portal to all federal, state and local government web resources and services.